Altoona, PA

6:49 AM EDT on June 25, 2017 (GMT -0400)
Altoona-Blair County

Weather History for KAOO - October, 2012

Change the Weather History Date:

Tuesday, October 30, 2012

  Actual Average Record
Temperature  
Mean Temperature 42 °F 47 °F  
Max Temperature 48 °F 57 °F 78 °F (1971)
Min Temperature 35 °F 38 °F 22 °F (1983)
Degree Days  
Heating Degree Days 24 18  
Month to date heating degree days 418  
Since 1 July heating degree days 589  
Cooling Degree Days 0 0  
Month to date cooling degree days 0  
Year to date cooling degree days 522  
Moisture  
Dew Point 37 °F    
Average Humidity 90    
Maximum Humidity 93    
Minimum Humidity 81    
Precipitation  
Precipitation 1.09 in 0.09 in 1.00 in (2012)
Month to date precipitation 2.51  
Year to date precipitation 26.89  
Sea Level Pressure  
Sea Level Pressure 29.10 in    
Wind  
Wind Speed 15 mph (ESE)    
Max Wind Speed 26 mph    
Max Gust Speed 39 mph    
Visibility 8 miles    
Events Rain , Snow    
T = Trace of Precipitation, MM = Missing Value Source: NWS Daily Summary

Daily Weather History Graph

Daily Weather History Graph

Search for Another Location

Airport or City:

Trip Planner

Search our weather history database for the weather conditions in past years. The results will help you decide how hot, cold, wet, or windy it might be!

Date:

Astronomy

Oct. 30, 2012 Rise Set
Actual Time 7:41 AM EDT 6:12 PM EDT
Civil Twilight 7:12 AM EDT 6:40 PM EDT
Nautical Twilight 6:40 AM EDT 7:12 PM EDT
Astronomical Twilight 6:09 AM EDT 7:43 PM EDT
Moon 6:40 PM EDT (10/30) 8:26 AM EDT (10/30)
Length of Visible Light 11h 27m
Length of Day
10h 31m
Full, 99% of the Moon is Illuminated
Oct 30
Full
Nov 6
Last Quarter
Nov 13
New
Nov 20
First Quarter
Nov 28
Full

Hourly Weather History & Observations

Time (EDT) Temp. Windchill Dew Point Humidity Pressure Visibility Wind Dir Wind Speed Gust Speed Precip Events Conditions
12:06 AM 42.8 °F 32.9 °F 37.4 °F 81% 28.78 in 8.0 mi NNW 26.5 mph 38.0 mph 0.01 in Rain Light Rain
12:34 AM 42.8 °F 32.9 °F 37.4 °F 81% 28.76 in 8.0 mi NNW 26.5 mph 36.8 mph 0.05 in Rain Light Rain
12:53 AM 43.0 °F 33.1 °F 37.9 °F 82% 28.76 in 5.0 mi NNW 26.5 mph 39.1 mph 0.08 in Rain Rain
1:53 AM 44.1 °F 35.4 °F 39.9 °F 85% 28.74 in 5.0 mi NW 21.9 mph 35.7 mph 0.09 in Rain Rain
2:03 AM 44.6 °F 36.1 °F 41.0 °F 87% 28.73 in 7.0 mi NW 21.9 mph 35.7 mph 0.01 in Rain Light Rain
2:53 AM 46.9 °F - 43.0 °F 86% 28.75 in 6.0 mi NNW 13.8 mph 27.6 mph 0.13 in Rain Rain
3:29 AM 46.4 °F 39.2 °F 44.6 °F 93% 28.75 in 5.0 mi NNW 18.4 mph 28.8 mph 0.07 in Rain Heavy Rain
3:51 AM 48.2 °F - 46.4 °F 93% 28.77 in 3.0 mi North 12.7 mph - 0.14 in Rain Heavy Rain
3:53 AM 48.9 °F - 46.0 °F 90% 28.77 in 2.5 mi NNE 17.3 mph 25.3 mph 0.14 in Rain Heavy Rain
4:00 AM 48.2 °F - 44.6 °F 87% 28.77 in 3.0 mi NNE 20.7 mph 32.2 mph 0.03 in Rain Heavy Rain
4:20 AM 46.4 °F 38.1 °F 42.8 °F 87% 28.78 in 7.0 mi NNE 24.2 mph 32.2 mph 0.08 in Rain Rain
4:53 AM 46.0 °F 39.0 °F 42.1 °F 86% 28.82 in 6.0 mi NNE 17.3 mph 25.3 mph 0.14 in Rain Light Rain
5:53 AM 44.1 °F 37.1 °F 41.0 °F 89% 28.86 in 6.0 mi NNE 15.0 mph 27.6 mph 0.07 in Rain Light Rain
6:06 AM 44.6 °F 38.4 °F 41.0 °F 87% 28.86 in 5.0 mi NNE 12.7 mph - 0.01 in Rain Light Rain
6:46 AM 42.8 °F 34.8 °F 39.2 °F 87% 28.89 in 5.0 mi NNE 17.3 mph 24.2 mph 0.06 in Rain Rain
6:53 AM 43.0 °F 36.0 °F 39.9 °F 89% 28.91 in 5.0 mi NE 13.8 mph 24.2 mph 0.06 in Rain Rain
7:53 AM 42.1 °F 36.1 °F 39.0 °F 89% 28.96 in 7.0 mi NE 10.4 mph - 0.07 in Rain Rain
8:18 AM 39.2 °F 32.0 °F 37.4 °F 93% 28.97 in 4.0 mi NE 11.5 mph - 0.04 in Rain Rain
8:48 AM 39.2 °F 32.0 °F 35.6 °F 87% 28.99 in 7.0 mi ENE 11.5 mph 20.7 mph 0.05 in Rain Light Rain
8:53 AM 39.0 °F 32.8 °F 36.0 °F 89% 29.02 in 8.0 mi ENE 9.2 mph 19.6 mph 0.05 in Rain Light Rain
9:27 AM 37.4 °F 30.8 °F 35.6 °F 93% 29.02 in 8.0 mi NE 9.2 mph - 0.02 in Rain Light Rain
9:44 AM 37.4 °F 30.8 °F 35.6 °F 93% 29.04 in 4.0 mi NE 9.2 mph 17.3 mph 0.04 in Rain Light Rain
9:53 AM 37.9 °F 32.7 °F 35.1 °F 89% 29.06 in 4.0 mi NE 6.9 mph - 0.05 in Rain Rain
10:09 AM 37.4 °F 30.3 °F 35.6 °F 93% 29.05 in 5.0 mi NE 10.4 mph - 0.02 in Rain Rain
10:53 AM 37.0 °F 31.6 °F 34.0 °F 89% 29.11 in 5.0 mi NE 6.9 mph - 0.06 in Rain Rain
11:01 AM 37.4 °F 32.8 °F 35.6 °F 93% 29.09 in 6.0 mi NE 5.8 mph - 0.01 in Rain Light Rain
11:14 AM 37.4 °F 32.8 °F 35.6 °F 93% 29.10 in 6.0 mi ENE 5.8 mph - 0.02 in Rain Light Rain
11:21 AM 37.4 °F 33.8 °F 35.6 °F 93% 29.10 in 7.0 mi NE 4.6 mph - 0.03 in Rain Light Rain
11:53 AM 37.0 °F 34.5 °F 35.1 °F 93% 29.15 in 8.0 mi ENE 3.5 mph - 0.05 in Rain Light Rain
12:40 PM 37.4 °F 32.8 °F 35.6 °F 93% 29.15 in 10.0 mi East 5.8 mph - 0.00 in Rain Light Rain
12:53 PM 37.9 °F 32.1 °F 35.1 °F 89% 29.18 in 10.0 mi East 8.1 mph - 0.00 in Rain Light Rain
1:35 PM 37.4 °F 33.8 °F 35.6 °F 93% 29.18 in 10.0 mi SE 4.6 mph - 0.01 in Rain Light Rain
1:53 PM 37.9 °F 32.7 °F 36.0 °F 93% 29.21 in 10.0 mi SSE 6.9 mph - 0.02 in Rain Light Rain
2:09 PM 39.2 °F 34.2 °F 35.6 °F 87% 29.19 in 10.0 mi SSE 6.9 mph - 0.00 in Rain Light Rain
2:15 PM 39.2 °F 35.0 °F 35.6 °F 87% 29.20 in 9.0 mi SSE 5.8 mph - 0.00 in Rain Light Rain
2:22 PM 37.4 °F 32.8 °F 35.6 °F 93% 29.20 in 7.0 mi South 5.8 mph - 0.00 in Rain Light Rain
2:29 PM 37.4 °F 31.4 °F 35.6 °F 93% 29.20 in 6.0 mi South 8.1 mph - 0.01 in Rain Light Rain
2:48 PM 37.4 °F 32.1 °F 35.6 °F 93% 29.21 in 10.0 mi South 6.9 mph - 0.01 in Rain Light Rain
2:53 PM 37.9 °F 32.1 °F 35.1 °F 89% 29.23 in 10.0 mi South 8.1 mph - 0.01 in Rain Light Rain
3:27 PM 37.4 °F 30.3 °F 35.6 °F 93% 29.23 in 10.0 mi SSW 10.4 mph - 0.01 in Rain Light Rain
3:39 PM 37.4 °F 30.3 °F 35.6 °F 93% 29.24 in 10.0 mi South 10.4 mph - 0.01 in   Overcast
3:53 PM 37.0 °F 30.4 °F 34.0 °F 89% 29.27 in 10.0 mi South 9.2 mph - 0.01 in Rain Light Rain
4:17 PM 37.4 °F 29.8 °F 33.8 °F 87% 29.26 in 10.0 mi South 11.5 mph - 0.01 in Rain Light Rain
4:24 PM 37.4 °F 30.3 °F 33.8 °F 87% 29.26 in 10.0 mi SSW 10.4 mph - 0.01 in Rain Light Rain
4:50 PM 37.4 °F 31.4 °F 33.8 °F 87% 29.27 in 10.0 mi SSW 8.1 mph - 0.02 in Rain Light Rain
4:53 PM 37.0 °F 30.4 °F 34.0 °F 89% 29.29 in 10.0 mi South 9.2 mph - 0.02 in Rain Light Rain
5:53 PM 36.0 °F 29.0 °F 33.1 °F 89% 29.33 in 10.0 mi South 9.2 mph - 0.01 in   Overcast
6:01 PM 35.6 °F 29.2 °F 33.8 °F 93% 29.31 in 10.0 mi South 8.1 mph - 0.00 in   Overcast
6:20 PM 35.6 °F 29.9 °F 33.8 °F 93% 29.32 in 10.0 mi South 6.9 mph - 0.01 in   Overcast
6:27 PM 35.6 °F 29.2 °F 33.8 °F 93% 29.32 in 10.0 mi South 8.1 mph - 0.01 in   Overcast
6:53 PM 35.1 °F 29.3 °F 33.1 °F 92% 29.36 in 10.0 mi South 6.9 mph - 0.01 in Snow Light Snow
7:35 PM 35.6 °F 29.9 °F 33.8 °F 93% 29.35 in 10.0 mi South 6.9 mph - 0.01 in   Overcast
7:53 PM 35.1 °F 30.1 °F 33.1 °F 92% 29.38 in 10.0 mi South 5.8 mph - 0.01 in   Overcast
8:53 PM 35.1 °F 30.1 °F 33.1 °F 92% 29.40 in 10.0 mi South 5.8 mph - N/A   Overcast
9:53 PM 35.1 °F 32.2 °F 33.1 °F 92% 29.42 in 9.0 mi South 3.5 mph - 0.00 in   Overcast
10:21 PM 35.6 °F 30.7 °F 33.8 °F 93% 29.39 in 10.0 mi South 5.8 mph - 0.00 in   Overcast
10:53 PM 35.1 °F 29.3 °F 33.1 °F 92% 29.42 in 10.0 mi South 6.9 mph - 0.01 in   Overcast
11:33 PM 35.6 °F 30.7 °F 33.8 °F 93% 29.39 in 9.0 mi South 5.8 mph - 0.00 in Snow Light Snow
11:53 PM 35.1 °F 31.0 °F 33.1 °F 92% 29.42 in 9.0 mi South 4.6 mph - 0.00 in   Overcast